Stations météo

réclame
Mon MeteoGroup
Straubing, Allemagne (10788): Température de l'air & dewpoint: 12.02.2019 17:00:00 - 18.02.2019 17:00:00 (CET)Straubing, Allemagne (10788): Température de l'air 5cm & Température de l'air -5cm: 12.02.2019 17:00:00 - 18.02.2019 17:00:00 (CET)Straubing, Allemagne (10788): Température de l'air -20cm & Température de l'air -100cm: 12.02.2019 17:00:00 - 18.02.2019 17:00:00 (CET)Straubing, Allemagne (10788): Vitesse du vent & gusts: 12.02.2019 17:00:00 - 18.02.2019 17:00:00 (CET)Straubing, Allemagne (10788): Direction du vent: 12.02.2019 17:00:00 - 18.02.2019 17:00:00 (CET)Straubing, Allemagne (10788): reduced air pressure: 12.02.2019 17:00:00 - 18.02.2019 17:00:00 (CET)Straubing, Allemagne (10788): visibility: 12.02.2019 17:00:00 - 18.02.2019 17:00:00 (CET)Straubing, Allemagne (10788): Ensoleillement: 12.02.2019 17:00:00 - 18.02.2019 17:00:00 (CET)Straubing, Allemagne (10788): Quantités de précipitations: 12.02.2019 17:00:00 - 18.02.2019 17:00:00 (CET)
Date & Time tt [°C] td [°C] tt 5cm [°C] tt -5cm [°C] tt -20cm [°C] tt -100cm [°C] ff [km/h] ff [knt] fx [km/h] fx [knt] dd ppp [hPa] vv [km] sd [min] rr [mm]
18.02.2019 17:00:00 8,2 1,5 4,0 5,9 2,5 3,8 6 3 9 5 E 1020,4 34 60 0,0
18.02.2019 16:00:00 9,8 0,9 10,2 7,7 2,0 3,8 6 4 9 5 E 1020,5 39 60 -
18.02.2019 15:00:00 9,4 -0,4 10,9 7,9 1,4 3,8 5 3 9 5 E 1021,0 39 60 0,0
18.02.2019 14:00:00 8,2 -0,8 10,9 6,1 1,0 3,8 5 3 9 5 NE 1022,2 34 60 0,0
18.02.2019 13:00:00 6,8 -1,3 8,6 1,5 0,9 3,8 5 3 11 6 NE 1023,2 28 60 0,0
18.02.2019 12:00:00 5,0 0,4 6,9 0,1 1,0 3,8 8 4 13 7 E 1024,2 24 60 0,0
18.02.2019 11:00:00 2,7 -0,7 5,0 0,1 1,0 3,8 8 4 10 6 E 1025,1 17 60 0,0
18.02.2019 10:00:00 0,8 -1,0 2,6 0,0 1,1 3,8 8 4 10 5 E 1025,6 12 60 0,0
18.02.2019 09:00:00 -0,8 -3,1 -0,7 0,0 1,2 3,8 3 2 6 3 ESE 1026,0 6 58 0,0
18.02.2019 08:00:00 -4,2 -6,0 -6,7 0,0 1,2 3,8 0 0 4 2 N 1026,7 9 1 0,0
18.02.2019 07:00:00 -3,8 -4,2 -6,0 0,1 1,2 3,8 3 2 7 4 ESE 1026,4 3,5 0 0,0
18.02.2019 06:00:00 -3,7 -4,0 -6,4 0,1 1,3 3,8 4 2 6 3 S 1026,3 1,9 0 0,0
18.02.2019 05:00:00 -2,4 -2,8 -4,8 0,1 1,3 3,8 4 2 8 4 S 1026,1 3,3 0 0,0
18.02.2019 04:00:00 -2,2 -2,3 -6,1 0,2 1,4 3,8 5 3 5 3 E 1026,3 3,7 0 0,0
18.02.2019 03:00:00 -2,1 -3,0 -6,1 0,2 1,5 3,8 3 2 9 5 NNE 1026,8 10 0 0,0
18.02.2019 02:00:00 -3,3 -4,0 -5,3 0,2 1,5 3,8 8 4 9 5 S 1027,3 5 0 0,0
18.02.2019 01:00:00 -2,1 -2,6 -4,1 0,3 1,7 3,8 7 4 9 5 S 1027,3 6 0 0,0
18.02.2019 00:00:00 -1,8 -2,4 -4,1 0,3 1,7 3,8 5 3 6 3 S 1027,2 2,2 0 0,0
17.02.2019 23:00:00 -1,5 -2,1 -3,5 0,4 1,9 3,8 6 3 9 5 SE 1027,1 10 0 0,0
17.02.2019 22:00:00 -1,0 -2,0 -4,1 0,4 2,0 3,8 7 4 8 5 S 1027,3 6 0 0,0
17.02.2019 21:00:00 1,4 -0,3 -1,5 0,6 2,2 3,8 8 4 9 5 SSW 1026,8 16 0 0,0
17.02.2019 20:00:00 2,2 -0,3 -2,3 0,8 2,4 3,8 6 3 7 4 SSW 1026,5 21 0 0,0
17.02.2019 19:00:00 5,4 0,4 -2,2 1,7 2,3 3,8 3 2 7 4 SSE 1025,9 28 0 0,0
17.02.2019 18:00:00 6,5 2,8 1,0 3,3 2,2 3,8 5 3 11 6 E 1025,5 27 21 0,0
17.02.2019 17:00:00 8,2 2,3 4,5 5,3 1,9 3,8 10 5 13 7 E 1025,6 33 60 0,0
17.02.2019 16:00:00 10,1 2,1 10,1 6,8 1,4 3,8 11 6 15 8 E 1025,7 34 60 0,0
17.02.2019 15:00:00 10,1 0,8 11,5 6,7 0,9 3,8 10 5 16 9 E 1026,3 45 60 0,0
17.02.2019 14:00:00 9,1 1,0 11,2 4,2 0,7 3,8 14 8 17 9 E 1027,0 42 60 0,0
17.02.2019 13:00:00 6,7 0,9 8,3 0,5 0,6 3,8 13 7 16 9 E 1028,1 25 60 0,0
17.02.2019 12:00:00 4,6 0,1 7,0 0,0 0,7 3,8 7 4 12 6 ENE 1029,3 24 60 0,0
17.02.2019 11:00:00 2,4 -0,7 4,8 0,0 0,7 3,8 10 5 12 7 E 1030,1 19 60 0,0
17.02.2019 10:00:00 1,0 -0,8 2,9 0,0 0,7 3,8 8 4 10 5 E 1030,3 12 60 0,0
17.02.2019 09:00:00 -0,6 -2,2 -0,3 0,0 0,8 3,8 5 3 7 4 E 1030,8 8 60 0,0
17.02.2019 08:00:00 -3,3 -4,6 -4,3 0,0 0,8 3,8 4 2 7 4 S 1031,1 7 9 0,0
17.02.2019 07:00:00 -3,4 -4,1 -4,8 0,0 0,8 3,8 6 3 9 5 SSW 1030,5 7 0 0,0
17.02.2019 06:00:00 -3,4 -3,9 -5,1 0,1 0,8 3,8 6 3 8 4 SSW 1030,4 6 0 0,0
17.02.2019 05:00:00 -2,2 -2,8 -4,5 0,1 0,8 3,8 4 2 5 3 SSW 1030,3 7 0 0,0
17.02.2019 04:00:00 -3,5 -3,9 -5,1 0,1 0,9 3,8 4 2 4 2 SSE 1030,5 2,2 0 0,0
17.02.2019 03:00:00 -2,2 -2,5 -4,1 0,1 0,9 3,8 3 1 5 3 S 1030,5 3,4 0 0,0
17.02.2019 02:00:00 -2,3 -2,7 -4,7 0,1 0,9 3,8 3 2 6 3 SE 1030,8 2,8 0 0,0
17.02.2019 01:00:00 -2,1 -2,7 -3,9 0,1 0,9 3,8 5 3 7 4 SSE 1030,8 4,4 0 0,0
17.02.2019 00:00:00 -0,9 -2,1 -4,2 0,2 1,0 3,8 3 2 6 3 SE 1030,9 7 0 0,0
16.02.2019 23:00:00 -1,2 -1,8 -3,5 0,2 1,0 3,8 7 4 9 5 S 1031,0 5 0 0,0
16.02.2019 22:00:00 -1,4 -2,3 -3,0 0,2 1,1 3,8 8 4 9 5 S 1031,3 6 0 0,0
16.02.2019 21:00:00 1,0 -0,7 -2,8 0,3 1,2 3,8 7 4 9 5 S 1030,9 14 0 0,0
16.02.2019 20:00:00 3,1 0,6 -1,6 0,3 1,2 3,8 4 2 5 3 SSW 1030,7 18 0 0,0
16.02.2019 19:00:00 2,6 1,1 -1,6 0,5 1,3 3,8 3 2 6 3 SE 1030,8 8 0 0,0
16.02.2019 18:00:00 6,0 3,1 0,2 1,6 1,1 3,8 4 2 12 7 E 1029,8 24 18 0,0
16.02.2019 17:00:00 7,5 2,7 3,8 3,3 0,8 3,8 9 5 11 6 E 1029,6 31 60 0,0
16.02.2019 16:00:00 9,2 2,0 9,2 3,7 0,6 3,7 10 5 15 8 E 1029,6 34 60 0,0
16.02.2019 15:00:00 9,0 0,8 10,0 1,6 0,5 3,7 13 7 16 9 ESE 1030,1 28 60 0,0
16.02.2019 14:00:00 8,1 0,6 10,3 0,1 0,5 3,7 11 6 14 7 E 1030,7 31 60 0,0
16.02.2019 13:00:00 7,1 0,2 7,3 0,0 0,5 3,7 8 4 16 9 S 1031,7 27 60 0,0
16.02.2019 12:00:00 5,3 -0,1 6,7 0,0 0,5 3,7 12 6 21 12 SE 1032,5 24 60 0,0
16.02.2019 11:00:00 3,0 -0,5 4,4 0,0 0,5 3,7 12 7 19 10 E 1032,8 28 60 0,0
16.02.2019 10:00:00 0,9 -1,1 2,7 0,0 0,5 3,7 7 4 10 5 E 1033,5 13 60 0,0
16.02.2019 09:00:00 -1,6 -2,8 -1,7 0,0 0,6 3,7 4 2 7 4 SSW 1034,0 8 60 0,0
16.02.2019 08:00:00 -3,2 -4,1 -4,6 0,0 0,6 3,7 0 0 7 4 N 1033,8 7 2 0,0
16.02.2019 07:00:00 -3,3 -3,8 -5,8 0,0 0,6 3,7 5 3 9 5 SSW 1033,2 5 0 0,0
16.02.2019 06:00:00 -2,3 -2,9 -3,8 0,0 0,6 3,7 7 4 8 5 W 1032,8 5 0 0,0
16.02.2019 05:00:00 -3,0 -3,3 -6,0 0,0 0,6 3,8 0 0 5 3 N 1032,7 3,2 0 0,0
16.02.2019 04:00:00 -2,3 -2,9 -5,3 0,0 0,6 3,8 4 2 5 3 SW 1032,7 3,6 0 0,0
16.02.2019 03:00:00 -2,4 -2,6 -4,3 0,0 0,6 3,8 2 1 5 3 ESE 1033,2 0,9 0 0,0
16.02.2019 02:00:00 -2,0 -2,4 -5,0 0,0 0,5 3,8 3 2 5 3 SW 1033,9 4,1 0 0,0
16.02.2019 01:00:00 -1,2 -2,1 -4,5 0,0 0,5 3,8 0 0 7 4 N 1033,8 8 0 0,0
16.02.2019 00:00:00 -0,5 -1,4 -3,3 0,0 0,5 3,8 5 3 8 4 SSW 1033,9 10 0 0,0
15.02.2019 23:00:00 -0,8 -1,3 -3,8 0,0 0,5 3,8 5 3 9 5 SSW 1034,2 4,5 0 0,0
15.02.2019 22:00:00 -1,0 -1,5 -3,0 0,0 0,5 3,8 9 5 13 7 SSW 1034,5 5 0 0,0
15.02.2019 21:00:00 0,0 -1,1 -4,9 0,0 0,5 3,8 3 2 7 4 WSW 1034,7 8 0 0,0
15.02.2019 20:00:00 1,5 0,3 -2,6 0,0 0,5 3,8 4 2 6 4 S 1034,7 9 0 0,0
15.02.2019 19:00:00 2,7 0,7 -1,3 0,0 0,5 3,8 4 2 7 4 S 1034,7 12 0 0,0
15.02.2019 18:00:00 5,2 2,2 -0,7 0,0 0,4 3,8 6 3 12 7 E 1034,5 17 18 0,0
15.02.2019 17:00:00 6,5 1,5 2,6 0,0 0,4 3,8 8 4 9 5 E 1034,4 22 60 0,0
15.02.2019 16:00:00 7,8 1,8 8,1 0,2 0,4 3,8 8 5 11 6 E 1034,7 24 60 0,0
15.02.2019 15:00:00 7,7 -0,1 9,2 0,1 0,4 3,8 6 3 10 5 E 1035,0 27 60 0,0
15.02.2019 14:00:00 6,6 0,5 8,0 0,0 0,4 3,8 5 3 9 5 E 1035,8 20 60 0,0
15.02.2019 13:00:00 5,0 0,4 6,5 -0,1 0,4 3,8 6 3 9 5 E 1036,7 16 60 0,0
15.02.2019 12:00:00 2,7 -0,8 5,0 -0,1 0,4 3,8 6 3 10 5 E 1037,7 14 60 0,0
15.02.2019 11:00:00 1,5 -1,3 3,6 -0,1 0,4 3,8 6 3 9 5 E 1038,1 13 60 0,0
15.02.2019 10:00:00 -0,6 -2,7 0,6 -0,1 0,4 3,8 3 1 5 3 NE 1038,6 6 53 0,0
15.02.2019 09:00:00 -1,6 -2,9 -1,2 -0,3 0,5 3,8 0 0 5 3 N 1038,8 5 45 0,0
15.02.2019 08:00:00 -4,0 -4,0 -4,2 -0,4 0,5 3,8 4 2 5 3 S 1038,8 0,1 0 0,0
15.02.2019 07:00:00 -3,3 -3,8 -5,6 -0,4 0,5 3,8 3 2 5 3 SW 1038,3 3,1 0 0,0
15.02.2019 06:00:00 -3,1 -3,5 -5,0 -0,3 0,5 3,8 4 2 5 3 SSW 1038,4 4,0 0 0,0
15.02.2019 05:00:00 -3,7 -4,2 -7,0 -0,2 0,5 3,8 5 3 5 3 S 1038,8 3,8 0 0,0
15.02.2019 04:00:00 -2,6 -3,4 -5,6 -0,1 0,5 3,8 4 2 5 3 WSW 1038,7 6 0 0,0
15.02.2019 03:00:00 -2,2 -2,5 -6,3 0,0 0,5 3,8 3 2 4 2 SE 1038,8 1,2 0 0,0
15.02.2019 02:00:00 -2,3 -2,5 -5,0 0,0 0,5 3,8 4 2 5 3 SSE 1039,2 1,4 0 0,0
15.02.2019 01:00:00 -1,6 -1,9 -4,7 0,0 0,5 3,8 4 2 7 4 SSW 1038,9 3,4 0 0,0
15.02.2019 00:00:00 -1,2 -1,8 -3,8 0,0 0,5 3,8 5 3 8 4 SW 1038,7 6 0 0,0
14.02.2019 23:00:00 -1,6 -2,3 -4,0 0,0 0,5 3,8 7 4 8 4 SSW 1038,8 5 0 0,0
14.02.2019 22:00:00 -1,4 -2,5 -4,0 0,0 0,5 3,8 5 3 8 4 SW 1038,7 6 0 0,0
14.02.2019 21:00:00 0,2 -0,9 -3,5 0,0 0,5 3,8 6 3 10 5 SSW 1038,2 11 0 0,0
14.02.2019 20:00:00 1,7 -0,3 -1,4 0,0 0,5 3,8 9 5 10 6 SSW 1038,4 14 0 0,0
14.02.2019 19:00:00 2,8 0,2 -2,2 0,0 0,5 3,8 3 2 4 2 SSW 1038,3 16 0 0,0
14.02.2019 18:00:00 4,6 0,6 -1,9 0,0 0,4 3,8 3 2 8 4 NE 1037,8 24 16 0,0
14.02.2019 17:00:00 5,5 0,9 1,5 0,0 0,4 3,8 5 3 8 5 ENE 1037,4 22 60 0,0
14.02.2019 16:00:00 6,6 -0,8 6,7 0,0 0,4 3,8 6 3 11 6 E 1037,6 31 60 0,0
14.02.2019 15:00:00 6,3 -0,1 7,8 0,0 0,4 3,8 8 4 14 8 E 1037,9 28 60 0,0
14.02.2019 14:00:00 5,8 -0,6 7,1 0,0 0,4 3,8 5 3 11 6 ESE 1038,0 27 60 0,0
14.02.2019 13:00:00 3,8 -0,9 5,6 0,0 0,5 3,8 5 3 10 5 E 1039,3 18 60 0,0
14.02.2019 12:00:00 2,1 -1,2 4,3 0,0 0,5 3,8 6 4 11 6 E 1040,1 20 60 0,0
14.02.2019 11:00:00 1,2 -1,7 2,4 0,0 0,5 3,8 4 2 10 6 E 1040,3 16 58 0,0
14.02.2019 10:00:00 -0,2 -1,6 0,4 0,0 0,5 3,8 9 5 12 6 ENE 1040,7 12 30 0,0
14.02.2019 09:00:00 -0,8 -2,9 -0,1 0,0 0,5 3,8 5 3 8 5 E 1040,5 14 53 0,0
14.02.2019 08:00:00 -3,2 -3,9 -4,6 0,0 0,6 3,8 6 3 8 5 SSW 1040,6 9 0 0,0
14.02.2019 07:00:00 -2,4 -3,0 -5,2 0,0 0,6 3,8 3 1 6 3 NE 1040,1 10 0 0,0
14.02.2019 06:00:00 -3,0 -3,8 -5,4 0,0 0,6 3,8 4 2 6 4 SE 1040,0 16 0 0,0
14.02.2019 05:00:00 -2,0 -2,9 -4,1 0,0 0,6 3,8 5 3 8 4 SW 1039,4 15 0 0,0
14.02.2019 04:00:00 -2,8 -3,3 -5,4 0,0 0,6 3,8 6 3 6 4 SSE 1039,7 15 0 0,0
14.02.2019 03:00:00 -2,3 -3,0 -5,8 0,0 0,6 3,8 3 2 5 3 S 1039,6 15 0 0,0
14.02.2019 02:00:00 -2,6 -3,8 -5,3 0,0 0,6 3,8 4 2 10 5 SSW 1039,5 16 0 0,0
14.02.2019 01:00:00 -2,6 -3,4 -5,0 0,0 0,6 3,8 3 1 9 5 SSE 1039,7 14 0 0,0
14.02.2019 00:00:00 -1,7 -3,0 -4,3 0,0 0,6 3,8 6 3 9 5 SSW 1039,4 16 0 0,0
13.02.2019 23:00:00 -2,1 -3,3 -4,5 0,0 0,6 3,8 5 3 9 5 S 1039,4 17 0 0,0
13.02.2019 22:00:00 -0,5 -2,5 -4,8 0,0 0,6 3,8 0 0 10 6 SW 1039,3 20 0 0,0
13.02.2019 21:00:00 -0,2 -2,5 -3,0 0,0 0,6 3,8 10 5 11 6 S 1039,2 27 0 0,0
13.02.2019 20:00:00 -1,0 -2,7 -3,5 0,0 0,6 3,8 6 3 14 8 S 1039,7 26 0 0,0
13.02.2019 19:00:00 2,1 -1,8 -0,9 0,0 0,5 3,8 13 7 16 9 SSW 1038,7 34 0 0,0
13.02.2019 18:00:00 3,7 -2,1 -1,7 0,0 0,5 3,8 7 4 10 5 S 1038,6 43 0 0,0
13.02.2019 17:00:00 5,7 -2,1 1,8 0,0 0,5 3,8 6 3 11 6 SW 1038,2 50 54 0,0
13.02.2019 16:00:00 6,9 -2,6 4,8 0,0 0,5 3,8 9 5 16 8 WSW 1038,1 52 60 0,0
13.02.2019 15:00:00 7,3 -3,2 6,9 0,0 0,5 3,9 11 6 23 12 W 1038,0 58 60 0,0
13.02.2019 14:00:00 6,7 -2,4 6,4 0,0 0,5 3,9 11 6 20 11 WSW 1038,2 49 60 0,0
13.02.2019 13:00:00 6,4 -2,2 6,5 0,0 0,5 3,9 14 7 21 12 WSW 1038,2 46 60 0,0
13.02.2019 12:00:00 4,6 -1,3 6,3 0,0 0,5 3,9 7 4 15 8 NW 1039,4 35 60 0,0
13.02.2019 11:00:00 4,0 -1,4 5,6 0,0 0,5 3,9 7 4 15 8 W 1039,2 30 60 0,0
13.02.2019 10:00:00 2,7 -1,9 4,0 0,0 0,5 3,9 11 6 18 10 W 1039,2 35 36 0,0
13.02.2019 09:00:00 1,6 -1,6 0,4 0,0 0,5 3,9 7 4 16 9 WSW 1038,9 32 0 0,0
13.02.2019 08:00:00 1,1 -1,5 0,2 0,0 0,5 3,9 6 3 11 6 NW 1039,4 27 0 0,0
13.02.2019 07:00:00 1,5 -1,5 0,0 0,0 0,5 3,9 6 3 12 6 SW 1038,4 31 0 0,0
13.02.2019 06:00:00 1,8 -1,4 0,5 0,0 0,5 3,9 7 4 15 8 W 1038,6 38 0 0,0
13.02.2019 05:00:00 1,5 -1,1 0,2 0,0 0,5 3,9 10 5 15 8 WSW 1038,2 30 0 0,0
13.02.2019 04:00:00 1,6 -1,1 0,5 0,0 0,5 3,9 11 6 17 9 W 1037,8 33 0 0,0
13.02.2019 03:00:00 1,8 -1,6 0,6 0,0 0,5 3,9 11 6 17 9 W 1037,7 35 0 0,0
13.02.2019 02:00:00 1,7 -1,5 0,2 0,0 0,5 3,9 9 5 18 10 W 1037,6 37 0 0,0
13.02.2019 01:00:00 1,9 -1,5 0,6 0,0 0,5 3,9 10 6 16 8 W 1037,6 36 0 0,0
13.02.2019 00:00:00 1,7 -1,5 0,6 0,0 0,5 3,9 10 5 18 10 W 1037,4 35 0 0,0
12.02.2019 23:00:00 1,7 -1,5 0,4 0,0 0,5 3,9 11 6 16 9 W 1037,5 34 0 0,0
12.02.2019 22:00:00 2,0 -1,5 0,5 0,0 0,5 3,9 11 6 21 12 W 1037,4 38 0 0,0
12.02.2019 21:00:00 2,2 -1,5 0,8 0,0 0,5 3,9 14 7 22 12 W 1036,8 42 0 0,0
12.02.2019 20:00:00 2,2 -1,6 0,8 0,0 0,5 3,9 12 7 20 11 W 1036,6 41 0 0,0
12.02.2019 19:00:00 2,2 -1,8 1,0 0,0 0,5 3,9 13 7 19 10 W 1036,3 44 0 0,0
12.02.2019 18:00:00 2,0 -1,6 0,4 0,0 0,5 3,9 11 6 27 15 W 1035,2 41 0 0,0
12.02.2019 17:00:00 2,4 -1,5 0,7 0,0 0,5 3,9 17 9 40 22 W 1034,3 39 32 0,0

tt = Température de l'air
td = dewpoint
tt 5cm = Température de l'air 5cm
tt -5cm = Température de l'air -5cm
tt -20cm = Température de l'air -20cm
tt -100cm = Température de l'air -100cm
ff = Vitesse du vent
fx = gusts
dd = Direction du vent
ppp = reduced air pressure
vv = visibility
sd = Ensoleillement
rr = Quantités de précipitations

stations d'obs. à proximité